Location: Newark
(7.0858°N, 171.3717°E)
Time: 05:53:21
(UTC+00:00)

Courier 1B - Pass Details

Date: 05 December 2020
Orbit: 962 x 1209 km, 28.3° (Epoch: 20 January)

Event Time Altitude Azimuth Distance (km) Brightness Sun altitude
Rises 04:30:24 0° 235° (SW) 3,770 12.0 23.2°
Reaches altitude 10° 04:33:10 10° 233° (SW) 2,785 11.9 22.6°
Maximum altitude 04:39:52 70° 150° (SSE) 1,031 8.0 21.1°
Drops below altitude 10° 04:46:18 10° 67° (ENE) 2,686 9.3 19.7°
Sets 04:48:55 0° 65° (ENE) 3,628 9.9 19.1°
